Flag for Netherlands Weather past 2 weeks in Kralendijk, Bonaire, Netherlands

Now
81 °F

Warm.


Feels Like: 85 °F
Forecast: 80 / 86 °F
Wind: 18 mph from Northeast

Location: Flamingo Airport - Bonaire

Current Time: May 24, 2015 at 9:55:44 PM

Latest Report: May 24, 2015 at 9:00 PM


Visibility: N/A

Pressure: 29.92 "Hg

Humidity: 74%

Dew point: 72 °F

Location of KralendijkLocation

Historic Weather in Kralendijk — Graph

°F

Kralendijk temperature yesterday

Maximum temperature yesterday: 88 °F (at 12:00 PM)
Minimum temperature yesterday: 81 °F (at 12:00 AM)
Average temperature yesterday: 83 °F

Past Weeks' High & Low Weather Summary

 TemperatureHumidityPressure
High88 °F (May 12, 1:00 PM)89% (May 18, 2:00 AM)30.04 "Hg (May 18, 2:00 AM)
Low79 °F (May 10, 3:00 AM)62% (May 10, 2:00 PM)29.83 "Hg (May 20, 5:00 PM)
Average82 °F77%29.93 "Hg
* Reported May 9 8:00 PM — May 24 8:00 PM, Kralendijk, Weather by CustomWeather, © 2015

Note: Actual official high and low records may vary slightly from our data, if they occured in-between our weather recording intervals... More about our weather records

Advertising

Kralendijk weather history for previous 24 hours

 ConditionsComfort  
Time TempWeatherWind HumidityBarometerVisibility
8:00 PM
Sun, May 24
81 °FPassing clouds.18 mph79%29.92 "HgN/A
7:00 PM82 °FWarm.20 mph70%29.92 "HgN/A
6:00 PM82 °FScattered clouds.22 mph70%29.89 "HgN/A
5:00 PM84 °FScattered clouds.23 mph70%29.89 "HgN/A
4:00 PM86 °FScattered clouds.22 mph66%29.89 "HgN/A
3:00 PM86 °FWarm.22 mph66%29.92 "HgN/A
2:00 PM86 °FWarm.23 mph66%29.92 "HgN/A
1:00 PM86 °FWarm.23 mph70%29.95 "HgN/A
12:00 PM86 °FScattered clouds.24 mph70%29.95 "HgN/A
11:00 AM84 °FScattered clouds.24 mph74%29.98 "HgN/A
10:00 AM84 °FScattered clouds.23 mph79%29.98 "HgN/A
9:00 AM84 °FScattered clouds.20 mph79%29.98 "HgN/A
8:00 AM82 °FScattered clouds.20 mph79%29.98 "HgN/A
7:00 AM81 °FWarm.20 mph84%29.95 "HgN/A
6:00 AM81 °FWarm.17 mph84%29.92 "HgN/A
4:00 AM81 °FWarm.16 mph84%29.92 "HgN/A
2:00 AM81 °FWarm.20 mph84%29.95 "HgN/A
1:00 AM81 °FWarm.20 mph84%29.95 "HgN/A
12:00 AM81 °FWarm.21 mph84%29.95 "HgN/A
11:00 PM
Sat, May 23
81 °FWarm.18 mph84%29.98 "HgN/A
10:00 PM81 °FWarm.17 mph84%29.95 "HgN/A
9:00 PM81 °FPassing clouds.18 mph84%29.95 "HgN/A
Weather by CustomWeather, © 2015

See weather overviewHow to use our weather pages